Meerawa, Australia

5:58 PM AEST on April 26, 2017 (GMT +1000)
Meerawa

Weather History for 94287 - December, 2013

Change the Weather History Date:

Thursday, December 5, 2013

  Actual Average Record
Temperature  
Mean Temperature 75 °F -  
Max Temperature 84 °F 88 °F - ()
Min Temperature 66 °F 74 °F - ()
Cooling Degree Days 10    
Growing Degree Days 25 (Base 50)    
Moisture  
Dew Point 66 °F    
Average Humidity 70    
Maximum Humidity 100    
Minimum Humidity 42    
Precipitation  
Precipitation 0.00 in 0.29 in - ()
Sea Level Pressure  
Sea Level Pressure 29.77 in    
Wind  
Wind Speed 5 mph ()    
Max Wind Speed 10 mph    
Max Gust Speed -    
Visibility 7.9 miles    
Events      
T = Trace of Precipitation, MM = Missing Value Source: Averaged Metar Reports

Daily Weather History Graph

Daily Weather History Graph

Search for Another Location

Airport or City:

Trip Planner

Search our weather history database for the weather conditions in past years. The results will help you decide how hot, cold, wet, or windy it might be!

Date:

Astronomy

Dec. 05, 2013 Rise Set
Actual Time 5:35 AM AEST 6:40 PM AEST
Civil Twilight 5:11 AM AEST 7:03 PM AEST
Nautical Twilight 4:43 AM AEST 7:32 PM AEST
Astronomical Twilight 4:14 AM AEST 8:00 PM AEST
Moon 7:37 AM AEST (12/5) 8:53 PM AEST (12/5)
Length of Visible Light 13h 52m
Length of Day
13h 05m
Waxing Crescent, 6% of the Moon is Illuminated
Dec 5
Waxing Crescent
Dec 10
First Quarter
Dec 17
Full
Dec 25
Last Quarter
Jan 1
New

Hourly Weather History & Observations

Time (AEST) Temp. Heat Index Dew Point Humidity Pressure Visibility Wind Dir Wind Speed Gust Speed Precip Events Conditions
12:00 AM 74 °F - 65 °F 65% 29.81 in - South 6.9 mph - -  
12:00 AM 73.4 °F - 64.4 °F 73% 29.80 in 6.2 mi South 6.9 mph - N/A   Partly Cloudy
12:30 AM 71.6 °F - 66.2 °F 83% 29.80 in - ESE 8.1 mph - N/A   Clear
1:00 AM 72 °F - 67 °F 78% 29.79 in - SSE 6.9 mph - -  
1:00 AM 71.6 °F - 66.2 °F 83% 29.77 in - SSE 6.9 mph - N/A   Clear
1:30 AM 69.8 °F - 66.2 °F 88% 29.77 in - West 4.6 mph - N/A   Clear
2:00 AM 68.0 °F - 66.2 °F 94% 29.77 in - North 3.5 mph - N/A   Clear
2:30 AM 68.0 °F - 66.2 °F 94% 29.74 in - Calm Calm - N/A   Clear
3:00 AM 68 °F - 66 °F 93% 29.76 in - WSW 2.3 mph - -  
3:00 AM 68.0 °F - 66.2 °F 94% 29.74 in - WSW 2.3 mph - N/A   Clear
3:30 AM 68.0 °F - 66.2 °F 94% 29.74 in - Calm Calm - N/A   Clear
4:00 AM 68 °F - 67 °F 94% 29.77 in - West 4.6 mph - -  
4:00 AM 68.0 °F - 66.2 °F 94% 29.74 in 6.2 mi West 4.6 mph - N/A   Unknown
4:30 AM 68.0 °F - 66.2 °F 94% 29.77 in - Calm Calm - N/A   Clear
5:00 AM 66.2 °F - 66.2 °F 100% 29.77 in 6.2 mi Calm Calm - N/A   Partly Cloudy
5:30 AM 66.2 °F - 66.2 °F 100% 29.80 in 6.2 mi Calm Calm - N/A   Partly Cloudy
6:00 AM 68 °F - 66 °F 90% 29.80 in 19 mi West 4.6 mph - -   Partly Cloudy
6:00 AM 68.0 °F - 66.2 °F 94% 29.80 in 6.2 mi West 4.6 mph - N/A   Partly Cloudy
6:30 AM 69.8 °F - 66.2 °F 88% 29.80 in 6.2 mi Calm Calm - N/A   Partly Cloudy
7:00 AM 73 °F - 67 °F 75% 29.82 in - Calm Calm - -  
7:00 AM 73.4 °F - 66.2 °F 78% 29.80 in 6.2 mi Calm Calm - N/A   Partly Cloudy
7:30 AM 75.2 °F - 66.2 °F 73% 29.80 in 6.2 mi West 1.2 mph - N/A   Partly Cloudy
8:00 AM 78.8 °F - 64.4 °F 61% 29.80 in 6.2 mi SSW 1.2 mph - N/A   Partly Cloudy
8:30 AM 78.8 °F - 66.2 °F 65% 29.83 in 6.2 mi SE 5.8 mph - N/A   Partly Cloudy
9:00 AM 81 °F - 64 °F 48% 29.83 in 19 mi East 5.8 mph - -   Partly Cloudy
9:00 AM 80.6 °F 82.3 °F 64.4 °F 58% 29.83 in 6.2 mi East 5.8 mph - N/A   Partly Cloudy
9:30 AM 80.6 °F 82.3 °F 64.4 °F 58% 29.80 in 6.2 mi NE 4.6 mph - N/A   Unknown
10:00 AM 82 °F - 65 °F 48% 29.83 in - NE 8.1 mph - -  
10:00 AM 82.4 °F 84.6 °F 66.2 °F 58% 29.80 in 6.2 mi NE 8.1 mph - N/A   Partly Cloudy
10:30 AM 82.4 °F 83.9 °F 64.4 °F 54% 29.80 in 6.2 mi NE 8.1 mph - N/A   Partly Cloudy
11:00 AM 82.4 °F 84.6 °F 66.2 °F 58% 29.80 in 6.2 mi NNE 10.4 mph - N/A   Partly Cloudy
11:30 AM 82.4 °F 84.6 °F 66.2 °F 58% 29.80 in 6.2 mi NNE 9.2 mph - N/A   Partly Cloudy
12:00 PM 82 °F - 66 °F 48% 29.81 in 19 mi NNE 9.2 mph - -   Partly Cloudy
12:00 PM 82.4 °F 84.6 °F 66.2 °F 58% 29.80 in 6.2 mi NNE 9.2 mph - N/A   Partly Cloudy
12:30 PM 84.2 °F 86.6 °F 66.2 °F 55% 29.80 in - NNE 9.2 mph - N/A   Clear
1:00 PM 83 °F - 66 °F 48% 29.78 in - North 9.2 mph - -  
1:00 PM 82.4 °F 84.6 °F 66.2 °F 58% 29.77 in 6.2 mi North 9.2 mph - N/A   Partly Cloudy
1:30 PM 82.4 °F 83.9 °F 64.4 °F 54% 29.74 in 6.2 mi NNE 9.2 mph - N/A   Partly Cloudy
2:00 PM 82.4 °F 84.6 °F 66.2 °F 58% 29.74 in - North 9.2 mph - N/A   Clear
2:30 PM 82.4 °F 84.6 °F 66.2 °F 58% 29.74 in 6.2 mi North 8.1 mph - N/A   Partly Cloudy
3:00 PM 83 °F - 63 °F 42% 29.73 in 19 mi NNE 8.1 mph - -  
3:00 PM 82.4 °F 83.4 °F 62.6 °F 51% 29.71 in - NNE 8.1 mph - N/A   Clear
3:30 PM 82.4 °F 84.6 °F 66.2 °F 58% 29.71 in - NNE 8.1 mph - N/A   Clear
4:00 PM 83 °F - 64 °F 42% 29.73 in - NNE 8.1 mph - -  
4:00 PM 82.4 °F 83.9 °F 64.4 °F 54% 29.71 in - NNE 8.1 mph - N/A   Clear
4:30 PM 82.4 °F 84.6 °F 66.2 °F 58% 29.71 in - NNE 8.1 mph - N/A   Clear
5:00 PM 82.4 °F 84.6 °F 66.2 °F 58% 29.71 in - NNE 8.1 mph - N/A   Clear
5:30 PM 82.4 °F 83.9 °F 64.4 °F 54% 29.71 in - North 6.9 mph - N/A   Clear
6:00 PM 80 °F - 65 °F 51% 29.74 in - North 5.8 mph - -  
6:00 PM 80.6 °F 82.3 °F 64.4 °F 58% 29.74 in - North 5.8 mph - N/A   Clear
6:30 PM 78.8 °F - 66.2 °F 65% 29.74 in - NNE 4.6 mph - N/A   Clear
7:00 PM 77 °F - 66 °F 61% 29.77 in - NNE 3.5 mph - -  
7:00 PM 77.0 °F - 66.2 °F 69% 29.74 in - NNE 3.5 mph - N/A   Clear
7:30 PM 77.0 °F - 66.2 °F 69% 29.77 in 6.2 mi Calm Calm - N/A   Partly Cloudy
8:00 PM 77.0 °F - 66.2 °F 69% 29.77 in 6.2 mi NW 2.3 mph - N/A   Partly Cloudy
8:30 PM 77.0 °F - 66.2 °F 69% 29.77 in 6.2 mi WNW 4.6 mph - N/A   Partly Cloudy
9:00 PM 75 °F - 68 °F 72% 29.79 in - WNW 3.5 mph - -  
9:00 PM 75.2 °F - 68.0 °F 78% 29.77 in 6.2 mi WNW 3.5 mph - N/A   Partly Cloudy
9:30 PM 73.4 °F - 68.0 °F 83% 29.77 in 6.2 mi West 3.5 mph - N/A   Partly Cloudy
10:00 PM 74 °F - 68 °F 76% 29.80 in - WNW 2.3 mph - -  
10:00 PM 73.4 °F - 68.0 °F 83% 29.77 in 6.2 mi WNW 2.3 mph - N/A   Partly Cloudy
10:30 PM 75.2 °F - 68.0 °F 78% 29.80 in - West 5.8 mph - N/A   Clear
11:00 PM 73.4 °F - 68.0 °F 83% 29.80 in - Calm Calm - N/A   Clear
11:30 PM 73.4 °F - 66.2 °F 78% 29.80 in - Calm Calm - N/A   Clear